Regional Weather Roundup
Issued by NWS San Angelo, TX

Home | Current Version | Previous Version | Text Only | Print | Product List | Glossary On
Versions: 1 2 3 4 5 6 7 8 9 10 11 12 13 14 15 16 17 18 19 20 21 22 23 24 25 26 27 28 29 30 31 32 33 34 35 36 37 38 39 40 41 42 43 44 45 46 47 48 49 50
000
ASUS44 KSJT 200110
RWRSJT
WEST CENTRAL TEXAS REGIONAL WEATHER ROUNDUP
NATIONAL WEATHER SERVICE SAN ANGELO TX
800 PM CDT SAT APR 19 2014

NOTE: "FAIR" INDICATES FEW OR NO CLOUDS BELOW 12,000 FEET WITH NO
SIGNIFICANT WEATHER AND/OR OBSTRUCTIONS TO VISIBILITY.

TXZ049-054-064>066-071>073-076>078-098-099-113-114-127-128-139-140-
154-155-168>170-200200
...LOCATIONS ACROSS WEST CENTRAL TEXAS...

CITY           SKY/WX    TMP DP  RH WIND       PRES   REMARKS
SAN ANGELO     CLOUDY    75  51  43 E13       30.00S
ABILENE        CLEAR     72  49  44 SE16      30.04S
DYESS AFB      NOT AVBL
JUNCTION       CLOUDY    74  52  46 SE18      30.01F
SWEETWATER     CLOUDY    73  50  45 SE16G23   30.05F
BROWNWOOD      PTCLDY    72  50  46 SE9       30.04F
COLEMAN        PTCLDY    72  49  44 SE12      30.04S
SONORA         PTCLDY    72  52  49 SE8       30.02R
OZONA          FAIR      70  50  49 SE15      30.05R
BRADY          CLEAR     72  50  46 SE10      30.02F
$$

TEXAS PANHANDLE/OKLAHOMA PANHANDLE

CITY           SKY/WX    TMP DP  RH WIND       PRES   REMARKS
AMARILLO       CLOUDY    62  47  57 S9        30.04F
BORGER         CLOUDY    66  49  54 SW12G17   30.03F
CANADIAN       MOCLDY    75  47  36 SW15G26   29.99S
DALHART        CLOUDY    65  46  50 S16       30.01F
DUMAS          CLOUDY    62  46  55 S15       30.02F
GUYMON         NOT AVBL
HEREFORD       CLOUDY    58  49  72 S6        30.04F
PAMPA          LGT RAIN  60  53  76 SW10      30.06S
PERRYTON       PTCLDY    70  47  43 SW20G26   29.99S
$$

SOUTHERN PANHANDLE/SOUTH PLAINS/ROLLING PLAINS

CITY           SKY/WX    TMP DP  RH WIND       PRES   REMARKS
LUBBOCK        CLOUDY    61  56  83 N5        30.04S
SNYDER         PTCLDY    74  51  44 E10       30.01F
CHILDRESS      CLOUDY    75  48  38 S13       30.02S
SEMINOLE       LGT RAIN  61  56  83 NE6       30.09R
$$

PERMIAN BASIN

CITY           SKY/WX    TMP DP  RH WIND       PRES   REMARKS
MIDLAND        CLOUDY    72  51  47 SE15      30.02R
ODESSA         LGT RAIN  71  50  47 SE15      30.03R
WINK           TSTM      65  57  75 VRB5      30.04R
$$

FAR WEST/SOUTHWEST MOUNTAINS/TRANS PECOS

CITY           SKY/WX    TMP DP  RH WIND       PRES   REMARKS
ALPINE         CLOUDY    59  53  80 N14G22    30.12R
DRYDEN           N/A     76  53  44 E18G37    29.95R
EL PASO        CLOUDY    59  50  72 NW13      30.07R
FORT STOCKTON  TSTM      61  54  77 SE21      30.06R
GUADALUPE PASS MOCLDY    54  52  93 NE24      30.10F
MARFA          CLOUDY    61  52  72 N18       30.05S
PECOS          TSTM      60  56  88 W15G28    30.08R
$$

DALLAS/FORT WORTH METROPLEX

CITY           SKY/WX    TMP DP  RH WIND       PRES   REMARKS
DFW AIRPORT    MOCLDY    72  52  49 SE9       30.08S
FTW MEACHAM    MOCLDY    72  53  51 SE12      30.07S
DAL-EXECUTIVE  MOCLDY    72  53  51 SE7       30.09S
GRAND PRAIRIE  PTCLDY    73  52  46 SE6       30.11S
ADDISON        MOCLDY    72  48  43 SE10      30.09S
MESQUITE       CLEAR     72  52  49 SE3       30.09S
LANCASTER      MOCLDY    70  52  52 S3        30.10S
$$

NORTH CENTRAL TEXAS

CITY           SKY/WX    TMP DP  RH WIND       PRES   REMARKS
SHRMAN/DENISON CLOUDY    71  50  48 SE6       30.10R
GAINESVILLE    CLOUDY    69  53  56 SE6       30.11S
BRIDGEPORT     CLEAR     71  49  44 SE6       30.08F
DENTON         CLOUDY    71  52  50 S10       30.07F
WAXAHACHIE     MOCLDY    69  52  55 SE3       30.10F
GRANBURY       MOCLDY    73  53  49 E7        30.07F
$$

WESTERN NORTH TEXAS

CITY           SKY/WX    TMP DP  RH WIND       PRES   REMARKS
WICHITA FALLS  CLEAR     72  49  44 SE14      30.04F
VERNON         PTCLDY    75  49  38 SE9       30.04S
BRECKENRIDGE   PTCLDY    75  48  39 SE13      30.04S
COMANCHE       MOCLDY    71  49  46 SE7       30.06F
$$

CENTRAL AND SOUTH CENTRAL TEXAS

CITY           SKY/WX    TMP DP  RH WIND       PRES   REMARKS
AUSTIN/BERGSTM CLOUDY    72  57  59 SE5       30.05F
WACO           CLOUDY    69  55  60 SE7       30.08F
HILLSBORO      MOCLDY    71  53  53 E6        30.10S
TEMPLE         MOCLDY    70  52  52 SE8       30.11F
KILLEEN-GRAY   PTCLDY    72  54  53 E10       30.05F
FORT HOOD      NOT AVBL
GEORGETOWN     CLEAR     73  54  49 SE7       30.07F
LAGO VISTA     FAIR      72  53  51 SE5       30.08F
SAN MARCOS     CLOUDY    72  54  53 SE9       30.08S
NEW BRAUNFELS  CLOUDY    73  56  54 SE13      30.05F
RANDOLPH AFB   CLOUDY    73  55  52 SE12      30.06F
SAN ANTONIO    CLOUDY    76  54  46 SE21      30.04F
STINSON        CLOUDY    76  55  48 SE15      30.03S
PLEASANTON     NOT AVBL
LA GRANGE      MOCLDY    72  61  68 CALM      30.06S
GIDDINGS       MOCLDY    71  56  60 CALM      30.11S
$$

EAST TEXAS

CITY           SKY/WX    TMP DP  RH WIND       PRES   REMARKS
PARIS          PTCLDY    70  52  52 SE6       30.10S
CLARKSVILLE    MOCLDY    71  53  52 CALM      30.10S
TYLER          CLOUDY    72  54  53 SE3       30.10R
LONGVIEW       MOCLDY    68  57  68 E3        30.09S
PALESTINE      CLOUDY    71  58  63 CALM      30.11F
NACOGDOCHES    CLOUDY    64  57  77 CALM      30.12R
$$

TEXAS HILL COUNTRY AND EDWARDS PLATEAU

CITY           SKY/WX    TMP DP  RH WIND       PRES   REMARKS
LLANO          MOCLDY    73  52  46 SE10G16   30.06F
HORSESHOE BAY  FAIR      73  50  44 SE8       30.04F
KERRVILLE      MOCLDY    72  52  49 SE13      30.05F
FREDERICKSBRG  MOCLDY    71  51  50 SE8       30.06F
ROCKSPRINGS    CLOUDY    70  50  49 SE13G20   30.04F
HONDO          CLOUDY    78  56  46 SE15      30.04F
UVALDE         CLOUDY    77  55  45 SE14      30.00F
DEL RIO        CLOUDY    76  51  41 SE15G23   29.96F
$$

SOUTHEAST TEXAS

CITY           SKY/WX    TMP DP  RH WIND       PRES   REMARKS
COLLEGE STN    MOCLDY    73  56  54 CALM      30.08F
CALDWELL       CLOUDY    72  55  56 CALM      30.11F
CROCKETT       CLOUDY    72  64  78 CALM      30.12S
BRENHAM        MOCLDY    72  56  57 CALM      30.09F
HUNTSVILLE     CLOUDY    71  58  63 CALM      30.10R
CONROE         MOCLDY    71  59  65 SE7       30.10R
HOUSTON BUSH   PTCLDY    70  57  63 SE10      30.10R
HOUSTON HOBBY  MOCLDY    69  61  75 S9        30.10S
PERLAND        CLEAR     69  61  75 S7        30.13R
WHARTON        PTCLDY    68  60  75 S9        30.11R
$$

THE UPPER TEXAS COAST

CITY           SKY/WX    TMP DP  RH WIND       PRES   REMARKS
ORANGE         PTCLDY    67  58  74 S6        30.13R
PORT ARTHUR    PTCLDY    66  57  72 S6        30.11R
GALVESTON      CLEAR     67  64  90 SE9       30.12S
ANGLETON       CLEAR     67  62  84 SE7       30.11S
BAY CITY       PTCLDY    69  64  83 SE5       30.10F
$$

TEXAS COASTAL BEND, RIO GRANDE PLAINS DEEP SOUTH TEXAS

CITY           SKY/WX    TMP DP  RH WIND       PRES   REMARKS
VICTORIA       PTCLDY    71  58  63 SE9       30.09R
BEEVILLE       FAIR      72  59  64 SE12G17   30.07S
ROCKPORT       PTCLDY    70  63  78 SE12      30.09S
PORT ARANSAS   PTCLDY    68  66  93 SE6       30.09R
PORT LAVACA    PTCLDY    68  61  77 SE8       30.09S
CORPUS CHRISTI MOCLDY    71  61  70 SE13      30.08R
KINGSVILLE NAS CLOUDY    71  63  75 SE14      30.06F
COTULLA        CLOUDY    77  56  48 SE15G24   30.01S
LAREDO         CLOUDY    77  61  57 SE16      30.04R
BROWNSVILLE    MOCLDY    72  65  78 SE9       30.06S
PORT ISABEL    MOCLDY    73  65  75 SE12      30.06S
HEBBRONVILLE   CLOUDY    73  60  63 E14       30.06S
MCALLEN        CLOUDY    75  63  66 SE16      30.04R
WESLACO        CLOUDY    75  61  62 SE10G20   30.04S
FALFURRIAS     CLOUDY    73  62  69 SE12G18   30.05R
EDINBURG       CLOUDY    75  62  64 E13G23    30.05R
$$



USA.gov is the U.S. government's official web portal to all federal, state and local government web resources and services.